Time,TemperatureF,DewpointF,PressureIn,WindDirection,WindDirectionDegrees,WindSpeedMPH,WindSpeedGustMPH,Humidity,HourlyPrecipIn,Conditions,Clouds,dailyrainin,SoftwareType,DateUTC
2013-04-01 00:00:00,44.8,29.6,29.94,NNE,18,0.0,0.0,55,0.00,,,0.00,Wunderground v.1.15,2013-04-01 05:00:00,
2013-04-01 00:10:00,44.1,29.8,29.95,NNE,13,0.0,0.0,57,0.00,,,0.00,Wunderground v.1.15,2013-04-01 05:10:00,
2013-04-01 00:15:00,43.6,29.8,29.95,NNE,23,0.0,0.0,58,0.00,,,0.00,Wunderground v.1.15,2013-04-01 05:15:00,
2013-04-01 00:25:00,42.9,30.4,29.97,North,0,0.0,0.0,61,0.00,,,0.00,Wunderground v.1.15,2013-04-01 05:25:00,
2013-04-01 00:35:00,42.3,30.6,29.97,NNE,24,0.0,0.0,63,0.00,,,0.00,Wunderground v.1.15,2013-04-01 05:35:00,
2013-04-01 00:45:00,41.8,31.3,29.97,North,0,0.0,0.0,66,0.00,,,0.00,Wunderground v.1.15,2013-04-01 05:45:00,
2013-04-01 00:55:00,41.1,31.3,29.98,North,0,0.0,0.0,68,0.00,,,0.00,Wunderground v.1.15,2013-04-01 05:55:00,
2013-04-01 01:00:00,40.8,31.4,29.98,North,4,0.0,0.0,69,0.00,,,0.00,Wunderground v.1.15,2013-04-01 06:00:00,
2013-04-01 01:10:00,39.9,31.6,29.99,North,359,0.0,0.0,72,0.00,,,0.00,Wunderground v.1.15,2013-04-01 06:10:00,
2013-04-01 01:20:00,39.3,31.7,30.00,North,0,0.0,0.0,74,0.00,,,0.00,Wunderground v.1.15,2013-04-01 06:20:00,
2013-04-01 01:25:00,39.1,31.5,30.00,North,0,0.0,0.0,74,0.00,,,0.00,Wunderground v.1.15,2013-04-01 06:25:00,
2013-04-01 01:35:00,38.8,31.6,30.01,North,0,0.0,0.0,75,0.00,,,0.00,Wunderground v.1.15,2013-04-01 06:35:00,
2013-04-01 01:45:00,38.3,31.4,30.01,North,356,0.0,0.0,76,0.00,,,0.00,Wunderground v.1.15,2013-04-01 06:45:00,
2013-04-01 01:55:00,38.2,31.3,30.01,North,1,0.0,0.0,76,0.00,,,0.00,Wunderground v.1.15,2013-04-01 06:55:00,
2013-04-01 02:00:00,37.9,31.0,30.01,NNE,13,0.0,0.0,76,0.00,,,0.00,Wunderground v.1.15,2013-04-01 07:00:00,
2013-04-01 02:10:00,37.3,30.7,30.02,North,10,0.0,0.0,77,0.00,,,0.00,Wunderground v.1.15,2013-04-01 07:10:00,
2013-04-01 02:20:00,36.9,30.7,30.02,NNE,21,0.0,0.0,78,0.00,,,0.00,Wunderground v.1.15,2013-04-01 07:20:00,
2013-04-01 02:30:00,36.6,30.7,30.02,NNE,23,0.0,0.0,79,0.00,,,0.00,Wunderground v.1.15,2013-04-01 07:30:00,
2013-04-01 02:40:00,35.9,30.0,30.02,NNE,24,0.0,0.0,79,0.00,,,0.00,Wunderground v.1.15,2013-04-01 07:40:00,
2013-04-01 02:45:00,35.6,29.7,30.02,North,10,0.0,0.0,79,0.00,,,0.00,Wunderground v.1.15,2013-04-01 07:45:00,
2013-04-01 02:55:00,34.9,29.4,30.03,NNE,13,0.0,0.0,80,0.00,,,0.00,Wunderground v.1.15,2013-04-01 07:55:00,
2013-04-01 03:05:00,34.4,29.2,30.04,North,4,0.0,0.0,81,0.00,,,0.00,Wunderground v.1.15,2013-04-01 08:05:00,
2013-04-01 03:10:00,34.1,29.2,30.04,North,0,0.0,0.0,82,0.00,,,0.00,Wunderground v.1.15,2013-04-01 08:10:00,
2013-04-01 03:20:00,33.7,28.8,30.04,North,0,0.0,0.0,82,0.00,,,0.00,Wunderground v.1.15,2013-04-01 08:20:00,
2013-04-01 03:30:00,33.4,29.1,30.04,North,1,0.0,0.0,84,0.00,,,0.00,Wunderground v.1.15,2013-04-01 08:30:00,
2013-04-01 03:40:00,33.2,28.9,30.04,NNE,14,0.0,0.0,84,0.00,,,0.00,Wunderground v.1.15,2013-04-01 08:40:00,
2013-04-01 03:45:00,32.9,28.6,30.04,North,0,0.0,0.0,84,0.00,,,0.00,Wunderground v.1.15,2013-04-01 08:45:00,
2013-04-01 03:55:00,32.8,28.5,30.06,NNE,20,0.0,0.0,84,0.00,,,0.00,Wunderground v.1.15,2013-04-01 08:55:00,
2013-04-01 04:05:00,32.5,28.2,30.06,NNE,27,0.0,0.0,84,0.00,,,0.00,Wunderground v.1.15,2013-04-01 09:05:00,
2013-04-01 04:15:00,32.5,27.9,30.06,NNE,13,0.0,0.0,83,0.00,,,0.00,Wunderground v.1.15,2013-04-01 09:15:00,
2013-04-01 04:25:00,32.2,27.0,30.07,North,7,0.0,0.0,81,0.00,,,0.00,Wunderground v.1.15,2013-04-01 09:25:00,
2013-04-01 04:30:00,32.1,26.3,30.07,North,0,0.0,0.0,79,0.00,,,0.00,Wunderground v.1.15,2013-04-01 09:30:00,
2013-04-01 04:40:00,31.9,25.2,30.08,North,7,0.0,0.0,76,0.00,,,0.00,Wunderground v.1.15,2013-04-01 09:40:00,
2013-04-01 04:50:00,31.8,25.1,30.08,NNE,24,0.0,0.0,76,0.00,,,0.00,Wunderground v.1.15,2013-04-01 09:50:00,
2013-04-01 05:00:00,31.8,25.4,30.08,North,1,0.0,0.0,77,0.00,,,0.00,Wunderground v.1.15,2013-04-01 10:00:00,
2013-04-01 05:10:00,31.6,25.2,30.09,North,11,0.0,0.0,77,0.00,,,0.00,Wunderground v.1.15,2013-04-01 10:10:00,
2013-04-01 05:20:00,31.2,24.5,30.10,North,356,0.0,0.0,76,0.00,,,0.00,Wunderground v.1.15,2013-04-01 10:20:00,
2013-04-01 05:25:00,31.2,24.5,30.10,North,6,0.0,0.0,76,0.00,,,0.00,Wunderground v.1.15,2013-04-01 10:25:00,
2013-04-01 05:35:00,30.3,23.3,30.11,NNE,14,0.0,0.0,75,0.00,,,0.00,Wunderground v.1.15,2013-04-01 10:35:00,
2013-04-01 05:45:00,30.0,22.7,30.11,NNE,20,0.0,0.0,74,0.00,,,0.00,Wunderground v.1.15,2013-04-01 10:45:00,
2013-04-01 05:55:00,29.7,21.8,30.12,North,10,0.0,0.0,72,0.00,,,0.00,Wunderground v.1.15,2013-04-01 10:55:00,
2013-04-01 06:05:00,29.3,20.4,30.13,North,7,0.0,0.0,69,0.00,,,0.00,Wunderground v.1.15,2013-04-01 11:05:00,
2013-04-01 06:10:00,29.3,20.7,30.13,North,0,0.0,0.0,70,0.00,,,0.00,Wunderground v.1.15,2013-04-01 11:10:00,
2013-04-01 06:20:00,28.8,20.6,30.14,North,0,0.0,0.0,71,0.00,,,0.00,Wunderground v.1.15,2013-04-01 11:20:00,
2013-04-01 06:30:00,28.4,19.9,30.14,North,0,0.0,0.0,70,0.00,,,0.00,Wunderground v.1.15,2013-04-01 11:30:00,
2013-04-01 06:35:00,28.2,19.7,30.15,NNE,13,0.0,0.0,70,0.00,,,0.00,Wunderground v.1.15,2013-04-01 11:35:00,
2013-04-01 06:45:00,27.8,18.9,30.15,North,0,0.0,0.0,69,0.00,,,0.00,Wunderground v.1.15,2013-04-01 11:45:00,
2013-04-01 06:55:00,27.5,19.0,30.16,NNE,23,0.0,0.0,70,0.00,,,0.00,Wunderground v.1.15,2013-04-01 11:55:00,
2013-04-01 07:00:00,27.3,19.1,30.16,NNE,17,0.0,0.0,71,0.00,,,0.00,Wunderground v.1.15,2013-04-01 12:00:00,
2013-04-01 07:10:00,26.9,18.7,30.17,North,6,0.0,0.0,71,0.00,,,0.00,Wunderground v.1.15,2013-04-01 12:10:00,
2013-04-01 07:15:00,26.7,18.6,30.17,North,8,0.0,0.0,71,0.00,,,0.00,Wunderground v.1.15,2013-04-01 12:15:00,
2013-04-01 07:25:00,26.4,17.9,30.18,NNE,31,0.0,0.0,70,0.00,,,0.00,Wunderground v.1.15,2013-04-01 12:25:00,
2013-04-01 07:35:00,26.3,18.2,30.18,North,0,0.0,0.0,71,0.00,,,0.00,Wunderground v.1.15,2013-04-01 12:35:00,
2013-04-01 07:40:00,26.3,18.2,30.18,NNE,17,0.0,0.0,71,0.00,,,0.00,Wunderground v.1.15,2013-04-01 12:40:00,
2013-04-01 07:50:00,26.4,18.3,30.20,North,6,0.0,0.0,71,0.00,,,0.00,Wunderground v.1.15,2013-04-01 12:50:00,
2013-04-01 07:55:00,26.4,18.3,30.20,NNE,14,0.0,0.0,71,0.00,,,0.00,Wunderground v.1.15,2013-04-01 12:55:00,
2013-04-01 08:05:00,26.6,18.1,30.20,NNE,32,0.0,0.0,70,0.00,,,0.00,Wunderground v.1.15,2013-04-01 13:05:00,
2013-04-01 08:15:00,26.9,18.7,30.20,North,10,0.0,0.0,71,0.00,,,0.00,Wunderground v.1.15,2013-04-01 13:15:00,
2013-04-01 08:25:00,26.9,18.7,30.20,NNE,23,0.0,0.0,71,0.00,,,0.00,Wunderground v.1.15,2013-04-01 13:25:00,
2013-04-01 08:30:00,27.0,18.8,30.20,NNE,13,0.0,0.0,71,0.00,,,0.00,Wunderground v.1.15,2013-04-01 13:30:00,
2013-04-01 08:40:00,27.0,18.8,30.20,NNE,25,0.0,0.0,71,0.00,,,0.00,Wunderground v.1.15,2013-04-01 13:40:00,
2013-04-01 08:50:00,27.2,18.7,30.21,North,0,0.0,0.0,70,0.00,,,0.00,Wunderground v.1.15,2013-04-01 13:50:00,
2013-04-01 09:00:00,27.5,18.7,30.21,NNE,13,0.0,0.0,69,0.00,,,0.00,Wunderground v.1.15,2013-04-01 14:00:00,
2013-04-01 09:05:00,27.3,18.5,30.21,North,3,0.0,0.0,69,0.00,,,0.00,Wunderground v.1.15,2013-04-01 14:05:00,
2013-04-01 09:15:00,27.9,19.4,30.21,North,0,0.0,0.0,70,0.00,,,0.00,Wunderground v.1.15,2013-04-01 14:15:00,
2013-04-01 09:25:00,28.1,19.2,30.22,North,0,0.0,0.0,69,0.00,,,0.00,Wunderground v.1.15,2013-04-01 14:25:00,
2013-04-01 09:30:00,28.2,19.3,30.22,NNE,23,0.0,0.0,69,0.00,,,0.00,Wunderground v.1.15,2013-04-01 14:30:00,
2013-04-01 09:40:00,28.7,19.1,30.22,NNE,16,0.0,0.0,67,0.00,,,0.00,Wunderground v.1.15,2013-04-01 14:40:00,
2013-04-01 09:50:00,29.3,19.3,30.22,North,0,0.0,0.0,66,0.00,,,0.00,Wunderground v.1.15,2013-04-01 14:50:00,
2013-04-01 10:00:00,29.3,19.0,30.22,NNE,24,0.0,0.0,65,0.00,,,0.00,Wunderground v.1.15,2013-04-01 15:00:00,
2013-04-01 10:10:00,29.5,18.8,30.23,NNE,20,0.0,0.0,64,0.00,,,0.00,Wunderground v.1.15,2013-04-01 15:10:00,
2013-04-01 10:20:00,29.7,19.0,30.22,NNE,14,0.0,0.0,64,0.00,,,0.00,Wunderground v.1.15,2013-04-01 15:20:00,
2013-04-01 10:25:00,29.8,19.1,30.22,North,0,0.0,0.0,64,0.00,,,0.00,Wunderground v.1.15,2013-04-01 15:25:00,
2013-04-01 10:35:00,30.3,19.2,30.22,NE,37,0.0,0.0,63,0.00,,,0.00,Wunderground v.1.15,2013-04-01 15:35:00,
2013-04-01 10:45:00,30.7,19.6,30.22,NE,44,0.0,0.0,63,0.00,,,0.00,Wunderground v.1.15,2013-04-01 15:45:00,
2013-04-01 10:50:00,31.2,20.1,30.22,NNE,28,0.0,0.0,63,0.00,,,0.00,Wunderground v.1.15,2013-04-01 15:50:00,
2013-04-01 10:55:00,31.0,19.5,30.22,NNW,337,0.0,0.0,62,0.00,,,0.00,Wunderground v.1.15,2013-04-01 15:55:00,
2013-04-01 11:05:00,31.9,20.3,30.22,North,356,0.0,0.0,62,0.00,,,0.00,Wunderground v.1.15,2013-04-01 16:05:00,
2013-04-01 11:15:00,31.8,19.9,30.22,North,0,0.0,0.0,61,0.00,,,0.00,Wunderground v.1.15,2013-04-01 16:15:00,